カタログに戻る

STARLINK-37820

運用中通信SSO
NORAD 69423·PAYLOAD·🇺🇸 United States

打ち上げ Jun 7, 2026 から Vandenberg Space Force Base

Loading…

次のパス (今後24時間)

TLE

最新Source: CelesTrak SupGP

元期: Sep 15, 2026, 03:42 UTC

1 69423C 26126D   26258.15465278 -.00010078  00000+0 -31263-3 0  2585
2 69423  97.2849 119.3950 0001997  99.5460 149.7895 15.33463850    14

AllMySatでSTARLINK-37820をリアルタイム追跡

Download on the App Store